Location: Wayland
(32.6094°N, 98.8289°W)
Time: 12:04:16
(UTC+00:00)

Hubble Space Telescope - Visible Passes

Search period start: 20 July 2024 00:00
Search period end: 30 July 2024 00:00
Orbit: 509 x 513 km, 28.5° (Epoch: 19 July)

Date Brightness Start Highest point End Pass type
(mag) Time Alt. Az. Time Alt. Az. Time Alt. Az.
20 Jul 2.3 03:28:58 10° WSW 03:31:36 21° SSW 03:31:36 21° SSW visible
21 Jul 2.3 03:09:39 10° WSW 03:12:33 19° SSW 03:13:04 19° S visible
22 Jul 2.6 02:50:20 10° WSW 02:53:01 18° SSW 02:54:31 15° S visible
23 Jul 2.8 02:31:03 10° WSW 02:33:28 16° SSW 02:35:54 10° SSE visible
24 Jul 3.0 02:11:49 10° SW 02:13:54 14° SSW 02:16:00 10° S visible
